Theta_e
329 323 318 316 306 302 296 297 300 301 301 303 306 304 303 308 308 305 328 336 341 341 344 348 349 350 351 349 348 347 342 342 341 341 340 340 339 340 341 340 344 345 342 340 338 338 337 336 336
319 318 317 312 299 295 294 299 299 303 306 306 305 304 303 307 318 319 329 338 341 342 342 345 346 350 350 348 348 345 343 342 340 340 339 339 338 339 340 340 343 344 341 339 337 336 336 335 335
319 318 310 306 300 295 295 297 301 305 305 305 304 305 306 310 319 322 334 339 340 341 343 344 346 349 349 348 347 346 344 341 339 338 338 338 338 339 338 341 344 343 340 338 336 335 334 334 334
316 311 309 299 298 299 299 300 304 304 304 305 305 304 311 319 320 329 336 338 337 341 344 343 347 349 348 347 347 345 343 340 337 337 336 337 337 338 337 341 342 340 337 335 335 333 333 332 332
313 311 300 297 298 299 301 303 304 303 303 304 304 303 309 318 324 332 335 337 336 342 344 345 346 347 347 347 346 345 342 340 336 335 335 334 336 336 336 337 337 334 334 331 330 330 331 330 330
306 306 297 295 297 300 300 303 302 302 303 304 301 301 309 320 321 327 333 335 337 342 343 344 340 342 345 345 345 344 342 340 337 335 333 332 334 335 335 335 335 333 331 328 326 327 328 328 328
305 301 296 297 298 299 301 304 299 301 302 301 305 300 311 316 323 327 330 332 337 341 343 342 343 340 338 340 341 341 340 339 338 336 334 333 333 333 333 333 332 330 327 324 324 325 325 326 327
305 303 298 296 297 296 301 302 302 301 300 306 305 299 304 314 326 328 328 331 334 339 341 341 341 341 341 339 335 336 337 337 336 333 331 330 329 329 328 326 328 325 324 323 323 324 325 326 326
307 297 294 296 297 296 302 300 301 302 301 301 307 306 313 319 326 326 324 327 331 336 339 340 339 338 340 340 334 332 333 332 330 328 326 324 324 323 325 325 326 325 323 323 323 323 323 323 324
301 296 297 299 299 298 301 300 301 298 299 300 303 307 316 320 321 324 323 324 327 331 336 338 337 338 339 340 336 337 334 332 330 327 325 326 326 325 324 322 324 325 323 323 322 322 323 318 314
299 296 298 299 301 301 301 299 301 298 297 301 302 305 312 318 319 323 323 324 325 330 334 338 338 337 338 336 337 338 336 334 330 327 327 329 324 323 322 319 318 316 316 314 315 314 314 313 312
295 299 299 302 301 300 299 301 299 300 301 304 303 307 311 316 318 323 324 325 326 328 330 332 336 338 338 338 337 336 335 332 329 327 328 327 325 324 321 319 318 317 317 315 313 311 310 309 309
296 298 299 300 299 298 300 298 298 299 302 303 305 306 306 312 316 318 324 325 327 326 328 331 333 334 339 337 336 336 335 333 329 327 327 325 324 323 322 322 320 318 317 315 313 309 307 305 305
299 300 299 301 300 300 297 297 298 299 302 302 303 302 303 306 310 314 317 322 325 327 326 330 330 334 337 336 335 334 335 334 332 330 327 325 324 323 321 321 319 317 314 312 312 308 303 301 298
299 295 298 299 299 298 299 296 296 300 301 301 301 301 303 303 306 308 315 318 324 327 327 329 329 331 331 333 333 334 335 333 333 332 329 327 325 322 321 318 315 312 311 309 307 305 301 297 294
295 294 289 297 299 298 296 289 299 300 300 299 300 300 301 303 304 305 309 317 322 328 327 328 329 328 329 331 331 329 331 332 331 331 330 327 325 323 319 317 312 311 311 306 305 302 298 295 293
294 287 290 294 299 298 295 292 299 300 298 299 299 301 302 302 303 304 306 313 319 325 327 327 326 326 328 330 329 325 325 325 326 330 330 326 326 322 319 317 312 310 307 305 304 299 297 293 292
289 289 291 289 295 294 294 293 298 300 300 299 300 301 302 303 303 304 305 308 319 321 325 327 324 324 326 328 325 320 315 314 315 317 321 326 325 321 319 312 310 309 305 304 301 296 295 293 292
293 291 290 292 296 293 293 294 296 298 298 297 298 298 300 302 305 306 305 306 312 319 322 325 323 322 325 323 317 313 311 309 308 310 311 314 319 320 316 309 308 307 304 303 298 295 293 292 291
293 289 289 293 296 293 293 293 297 298 299 300 299 300 300 301 303 305 304 305 309 317 320 322 323 323 325 321 317 313 311 308 306 305 307 308 310 311 310 307 305 305 303 301 297 296 292 291 291
291 289 289 289 293 293 290 289 293 297 299 301 302 303 302 302 302 304 303 303 306 310 317 319 321 322 322 320 317 303 301 300 299 300 300 302 304 304 306 305 304 304 303 301 298 296 293 289 291
288 293 293 291 288 283 291 281 290 295 296 298 300 300 300 301 303 304 303 302 303 305 311 317 317 318 316 314 311 304 303 304 303 301 300 299 300 301 301 302 302 301 302 300 299 297 294 292 290
291 294 292 291 288 287 287 283 287 293 292 295 298 298 300 302 302 302 302 303 302 305 307 312 314 314 312 311 308 304 303 306 303 301 298 296 296 296 297 298 300 300 301 300 298 296 294 294 292
296 293 292 290 288 281 286 286 284 289 293 295 297 298 301 299 298 299 300 302 301 304 306 309 310 310 308 309 305 303 303 304 300 294 295 294 293 293 294 295 297 299 299 299 298 296 295 294 293
293 289 281 280 279 279 287 285 288 294 296 296 298 299 299 299 297 296 297 298 299 302 305 306 307 306 306 306 304 305 305 303 300 296 294 291 290 289 290 292 293 295 296 297 297 295 294 294 293
290 290 282 276 278 280 284 282 288 296 298 299 301 298 300 299 299 298 298 298 299 302 304 304 304 304 305 304 303 304 305 302 301 298 297 292 293 291 290 290 291 291 292 293 294 294 293 291 290
289 286 292 284 277 278 283 288 293 296 297 298 298 298 298 298 298 298 299 299 299 301 302 303 303 303 303 302 302 302 303 301 299 298 296 293 291 290 288 287 287 288 289 289 291 290 289 288 286
291 293 284 284 274 274 280 281 286 292 293 296 296 298 297 299 298 298 298 298 299 301 301 303 303 302 302 302 302 301 300 299 297 295 292 291 286 285 285 285 285 285 286 287 287 286 285 285 282
289 287 289 289 285 278 277 281 291 293 296 295 297 299 299 298 298 297 297 298 299 300 300 301 301 301 300 300 300 299 297 297 293 291 288 286 284 284 284 284 284 284 284 284 284 284 284 283 282
293 290 290 283 281 283 282 285 295 296 296 297 296 296 295 296 298 296 296 297 297 298 299 299 299 299 299 299 299 297 296 294 290 288 285 284 284 284 283 283 283 282 282 283 283 282 282 281 281
Wind_Speed
9 8 3 3 2 2 4 5 4 7 5 4 5 5 3 8 5 4 5 4 14 16 13 11 12 10 13 14 13 12 13 13 13 14 14 14 14 14 15 14 11 16 20 19 19 19 19 19 18
6 8 2 4 3 2 3 7 4 8 8 6 4 1 2 5 7 6 7 5 10 16 12 12 12 12 14 13 13 13 13 14 14 14 14 14 14 14 15 13 11 17 19 18 19 19 19 18 17
6 6 2 3 3 5 5 3 10 8 5 4 4 2 4 4 9 8 11 8 9 15 12 12 12 14 14 13 13 14 13 14 14 14 15 15 15 15 15 13 15 18 20 17 18 18 18 17 16
4 2 4 2 3 7 6 7 12 8 4 2 4 7 5 5 6 9 9 10 9 12 15 14 12 14 14 13 14 14 13 14 14 14 14 15 15 15 15 16 18 20 19 17 17 17 18 18 16
3 4 3 5 1 5 5 6 8 8 9 8 3 5 6 4 9 10 8 8 8 14 14 12 12 13 14 14 14 14 13 14 14 14 14 15 15 15 15 15 17 17 17 17 17 17 17 17 15
3 2 4 5 4 6 3 5 4 6 7 7 3 3 5 11 8 8 8 8 9 14 13 11 11 11 13 13 14 15 14 14 14 14 15 15 15 15 16 16 16 17 17 17 17 17 18 17 16
2 3 7 8 3 6 4 6 4 5 9 6 3 0 5 7 9 8 8 7 11 13 13 11 9 9 11 11 12 14 14 13 13 14 14 13 13 14 14 14 16 17 17 17 17 18 18 17 16
3 2 7 4 4 2 6 6 1 3 2 3 2 1 6 8 10 8 7 7 9 12 11 11 10 9 8 8 11 12 13 13 13 13 13 13 12 13 13 11 14 16 17 17 18 18 17 16 22
2 3 4 5 5 1 8 5 0 3 4 1 5 5 4 12 10 8 7 7 8 9 11 8 11 10 10 9 8 11 13 13 13 12 13 11 6 7 9 10 14 16 17 17 17 18 17 14 19
2 2 5 7 8 5 6 5 8 2 4 4 5 6 5 10 8 9 8 8 8 9 12 12 10 11 11 9 10 9 8 7 7 8 11 6 7 8 8 9 13 15 15 16 16 14 10 7 5
4 3 6 7 7 8 5 3 4 4 5 8 11 13 9 7 9 9 7 7 8 9 9 14 14 10 9 8 8 6 5 5 5 7 4 6 8 8 6 5 5 6 7 4 5 4 5 7 5
3 5 3 3 4 2 2 5 5 7 8 5 6 11 12 11 11 11 10 9 8 11 11 9 10 11 9 6 8 8 7 7 6 7 5 6 6 8 7 4 5 5 4 5 6 4 6 8 8
4 3 2 5 2 3 3 5 6 8 8 6 7 8 12 11 10 9 13 11 10 8 9 9 9 9 10 8 5 7 8 7 7 6 5 4 4 4 6 6 5 4 5 6 7 6 6 7 8
4 5 4 6 5 4 2 5 3 7 12 10 7 9 8 11 12 9 10 12 12 12 9 10 9 10 12 9 8 6 8 8 7 6 6 6 4 5 4 3 5 5 5 5 7 8 6 7 7
2 4 8 8 5 1 3 7 11 14 8 7 8 9 10 11 10 12 11 10 13 11 8 12 11 8 7 10 8 6 8 7 7 7 10 9 7 7 6 4 4 5 5 8 8 9 8 8 8
3 4 3 4 9 4 2 6 8 1 8 10 11 9 9 12 12 10 10 11 11 14 12 10 10 9 8 7 5 5 6 6 6 6 7 11 10 10 7 6 6 5 5 5 8 7 8 8 8
5 5 6 4 7 5 7 6 2 4 1 6 8 9 9 10 11 11 10 10 10 12 13 10 10 9 8 7 7 6 6 4 4 5 6 9 10 10 8 6 6 7 6 6 8 7 10 8 8
7 4 7 4 7 3 6 12 12 12 9 10 10 10 10 9 11 10 11 10 10 9 10 9 8 8 8 5 7 6 5 3 3 3 3 6 8 11 9 7 9 9 8 6 6 11 6 10 8
9 5 9 7 5 3 7 11 11 9 10 10 10 10 10 10 10 11 13 12 9 9 10 13 13 9 8 7 7 4 4 3 2 3 4 4 6 10 11 8 9 8 9 8 11 12 13 8 11
5 3 9 9 5 2 8 12 17 12 12 17 11 11 11 9 10 10 11 12 12 10 9 10 14 14 10 8 5 4 5 2 3 3 3 3 6 7 8 9 9 10 9 10 11 14 8 6 8
6 7 7 8 3 6 4 8 13 7 12 18 16 15 11 12 10 9 10 12 10 11 12 10 11 12 10 11 8 5 6 4 2 2 2 3 5 5 9 10 9 9 9 12 12 12 11 9 9
6 3 10 5 3 4 4 8 7 14 14 8 10 11 10 11 10 8 9 10 10 9 8 9 9 10 8 9 9 10 5 6 4 5 5 5 6 7 6 9 10 9 8 10 12 11 10 6 12
3 3 2 4 4 6 6 5 8 12 10 13 12 9 9 9 8 7 7 8 7 9 8 8 8 9 8 9 10 8 5 4 4 6 8 6 4 5 7 8 10 11 9 10 12 12 10 8 8
7 4 3 1 2 8 9 9 6 8 9 10 7 5 8 7 6 7 6 7 4 6 8 8 9 8 9 8 9 9 8 7 8 6 7 6 5 4 6 7 7 8 8 11 11 11 11 10 5
3 5 2 2 1 11 4 7 8 5 4 3 6 2 6 7 7 5 5 4 4 6 5 6 7 7 8 8 7 8 8 9 10 9 7 8 5 3 6 8 8 7 7 9 10 11 9 8 6
11 8 8 8 6 6 3 10 7 8 4 4 8 2 8 8 8 8 8 6 7 8 8 7 7 7 8 8 7 7 7 5 5 7 6 5 6 6 9 8 7 7 8 8 8 7 7 6 5
6 9 6 3 2 3 6 11 11 6 10 9 9 5 8 9 9 9 8 8 8 8 9 9 8 7 8 8 6 7 6 6 6 7 6 6 5 6 8 8 8 8 7 7 8 5 6 5 4
4 1 2 3 3 5 8 7 12 8 8 13 8 9 6 7 8 8 7 7 6 7 7 8 8 8 8 8 7 6 6 6 6 6 7 8 7 7 9 9 9 9 8 8 8 7 7 8 5
5 4 5 5 6 5 7 9 3 2 5 5 1 5 6 7 8 8 7 6 5 6 7 7 8 8 8 7 7 7 6 7 7 6 6 7 7 9 9 9 9 9 8 8 9 9 9 11 9
12 11 12 5 3 5 6 20 0 6 5 7 6 5 5 5 4 8 8 7 6 7 7 7 7 8 8 8 7 7 7 7 8 7 7 7 8 8 9 9 9 9 9 9 11 11 10 12 11
Wind_Direction
295 257 278 308 286 204 115 95 85 102 131 85 30 31 29 43 17 116 182 113 123 127 128 135 132 131 114 112 115 112 109 105 100 96 94 90 90 88 85 83 76 91 84 81 76 73 71 69 69
307 307 302 258 238 212 88 113 144 82 93 86 105 197 270 97 76 122 109 154 134 123 143 134 132 126 122 123 119 119 114 110 106 103 99 95 93 94 88 81 85 93 88 83 78 76 74 71 67
267 255 275 229 276 24 100 116 95 88 109 139 124 24 5 79 107 148 124 148 133 130 142 129 134 133 132 131 123 117 116 114 110 107 104 101 99 95 90 77 92 89 85 84 82 77 76 69 63
284 235 270 284 279 69 62 97 110 126 96 23 29 109 88 321 123 110 146 145 135 121 120 131 138 139 138 135 125 122 119 114 110 106 103 102 99 97 94 82 86 84 82 82 80 78 74 72 63
248 270 275 231 336 96 77 84 138 160 150 146 167 125 96 84 86 115 152 151 140 119 121 133 138 139 142 139 133 126 122 118 115 111 108 106 104 101 98 91 87 93 90 88 84 81 77 72 60
284 255 275 236 183 96 96 132 154 158 123 84 163 282 98 129 132 146 157 161 140 128 129 133 141 142 143 141 137 130 126 123 121 117 113 109 107 104 101 98 97 98 96 91 88 85 80 76 64
247 205 260 295 81 121 159 135 186 193 137 170 79 320 118 136 154 151 160 169 126 134 129 137 149 148 144 143 139 135 131 129 125 119 112 104 100 99 99 100 102 101 97 94 91 87 85 78 59
312 343 259 265 301 217 103 147 6 260 103 70 93 317 157 161 138 148 167 156 126 131 136 146 153 153 152 152 146 140 136 132 121 114 109 104 101 99 96 92 104 105 102 99 96 93 86 72 63
290 319 256 249 227 275 114 166 97 12 103 52 146 66 84 126 137 149 169 153 141 130 144 163 156 162 163 157 155 143 140 134 130 126 129 128 135 116 93 99 104 105 102 100 99 97 89 69 75
229 218 272 21 16 22 128 210 144 167 194 165 132 86 111 135 158 163 175 173 161 155 171 170 169 173 167 160 153 153 143 146 147 151 163 152 139 120 104 95 95 99 102 105 109 113 107 80 71
218 243 15 43 23 23 345 205 290 179 247 196 194 170 177 164 179 170 193 179 175 171 196 176 172 177 159 156 159 157 158 155 161 167 190 123 120 122 119 121 111 116 117 110 92 65 50 56 57
285 236 24 37 55 355 300 324 255 224 246 44 39 154 160 175 186 175 192 190 205 185 192 170 167 170 158 159 164 164 161 164 169 178 151 134 137 143 143 144 154 155 159 115 87 75 73 61 52
226 226 102 96 130 253 337 277 259 272 256 238 107 114 171 182 196 196 183 187 193 220 185 179 166 169 158 163 173 161 161 170 168 163 148 139 133 128 152 151 146 146 119 111 111 93 86 76 65
17 2 259 167 211 193 231 262 143 245 231 248 190 180 200 188 198 198 195 187 185 200 195 168 189 175 165 172 175 163 156 166 165 161 164 150 145 135 132 144 128 114 107 112 116 112 98 90 80
2 294 233 222 194 176 191 278 228 235 257 234 238 214 193 213 203 206 196 192 182 190 209 170 176 180 182 177 174 166 155 157 164 165 161 165 153 141 137 122 114 121 110 108 109 105 100 94 86
237 208 250 4 132 144 167 272 287 18 207 220 215 233 214 212 212 209 205 189 181 183 200 166 169 175 202 168 128 100 143 155 155 172 172 166 156 154 146 144 127 119 108 109 119 120 114 115 110
201 263 221 155 185 124 181 275 67 103 168 272 274 252 234 216 205 206 208 199 186 179 188 173 163 173 182 157 121 113 103 111 133 161 172 170 161 152 150 148 138 131 121 127 132 125 129 124 114
215 218 253 256 189 203 214 256 278 285 253 234 234 239 239 226 214 195 196 202 180 183 176 162 156 165 169 140 106 99 93 93 109 123 128 172 158 154 150 142 145 138 134 138 123 127 117 126 121
290 341 314 326 155 207 239 268 264 268 277 267 252 246 237 231 211 195 189 184 187 185 174 164 168 178 167 147 133 135 148 143 130 147 145 143 150 158 148 152 145 138 147 155 143 133 139 128 132
323 278 281 294 90 149 271 272 278 256 245 249 243 248 247 248 224 209 185 177 174 177 178 176 178 178 179 160 146 130 134 132 119 125 131 145 131 146 144 148 157 150 142 146 153 146 136 144 175
243 238 260 262 308 209 275 269 248 279 237 252 256 254 243 245 228 221 178 177 166 176 179 183 180 179 174 153 139 97 85 77 107 160 143 159 136 135 151 152 154 155 162 164 170 159 163 167 189
249 278 226 259 324 255 150 280 294 301 288 243 246 237 225 233 236 201 169 170 177 185 164 169 169 171 163 156 152 160 170 164 180 156 148 154 153 149 151 148 154 163 159 174 166 171 162 166 183
219 2 91 201 238 304 211 257 252 220 260 262 246 253 235 216 171 175 151 175 160 159 170 166 161 160 159 166 155 165 174 167 140 136 145 144 137 146 147 160 167 166 170 172 166 172 176 172 185
134 86 75 74 198 265 180 216 223 215 230 258 238 244 162 126 99 92 107 125 153 154 157 159 163 160 156 162 157 170 180 161 143 137 158 162 157 161 163 169 169 171 172 174 171 178 173 182 162
191 147 226 294 173 242 156 248 235 191 245 272 292 184 161 144 138 141 131 130 153 148 143 148 164 164 158 160 177 186 189 162 160 162 165 160 154 168 174 166 167 173 174 172 167 172 174 172 177
196 180 175 200 197 258 354 243 261 222 313 308 288 227 162 159 168 169 171 174 183 164 162 165 184 171 160 167 187 198 189 156 154 159 152 162 173 164 160 165 168 164 160 159 163 172 177 166 173
200 214 253 304 54 1 225 269 282 208 232 255 262 219 197 185 169 165 166 178 179 175 176 174 181 186 163 170 188 188 186 153 159 156 144 152 139 138 153 153 156 158 155 158 161 166 164 150 131
177 237 139 266 203 235 260 264 245 316 273 245 236 234 229 197 178 163 161 187 190 171 172 181 175 181 168 172 175 172 165 155 149 140 146 149 139 142 148 152 155 154 158 158 149 141 140 127 122
164 235 227 173 184 182 282 258 180 101 352 195 282 4 330 214 162 162 169 174 185 170 173 184 175 171 168 170 170 164 166 163 144 147 147 137 133 149 158 160 156 153 147 144 135 133 135 132 131
215 220 203 170 243 210 224 262 190 100 55 40 31 53 40 18 176 155 156 168 196 188 180 183 180 179 173 170 169 170 166 162 151 154 153 145 154 160 157 154 151 151 149 148 149 147 145 137 137